Regional Weather Roundup
Issued by NWS Sterling, VA

Home | Current Version | Previous Version | Graphics & Text | Print | Product List | Glossary On
Versions: 1 2 3 4 5 6 7 8 9 10 11 12 13 14 15 16 17 18 19 20 21 22 23 24 25 26 27
000
ASUS41 KLWX 231911
RWRLWX

REGIONAL WEATHER ROUNDUP
NATIONAL WEATHER SERVICE BALTIMORE MD/WASHINGTON DC
200 PM EST THU NOV 23 2017

Note: "FAIR" indicates few or no clouds below 12,000 feet
with no significant weather and/or obstructions to visibility.
 TC=TEMPERATURE CELSIUS

 * =Non NWS site. Station does not report precipitation (e.g. rain,
    snow, etc.), thunder, or fog.

DCZ001-MDZ009-015-VAZ040>042-051-053>054-232000-
WASHINGTON METRO

CITY           SKY/WX    TMP DP  RH WIND       PRES   REMARKS
WASHINGTON NAT MOSUNNY   45  21  38 VRB3      30.10F
DULLES         SUNNY     44  22  41 SW7       30.09F
ANDREWS AFB    SUNNY     44  21  40 W5        30.08F
FT BELVOIR     SUNNY     46  20  36 SW3       30.09F
COLLEGE PARK*  SUNNY     42  20  41 CALM      30.09F
LEESBURG*      SUNNY     45  27  49 CALM      30.09F
MANASSAS*      SUNNY     45  22  40 NW7       30.09F
GAITHERSBURG*  SUNNY     42  22  44 VRB5      30.08F

$$

MDZ006>007-011-014-232000-
BALTIMORE METRO

CITY           SKY/WX    TMP DP  RH WIND       PRES   REMARKS
BWI AIRPORT    MOSUNNY   44  23  43 NW9       30.08F
MD SCIENCE CTR   N/A     45  22  40 MISG      30.12R
MARTIN STATE   MOSUNNY   45  25  45 W6        30.10F
FORT MEADE*    SUNNY     43  23  45 W7        30.11F

$$

MDZ012-015-019>023-232000-
MARYLAND EASTERN SHORE

CITY           SKY/WX    TMP DP  RH WIND       PRES   REMARKS
OCEAN CITY     CLOUDY    41  25  53 W6        30.10F
SALISBURY      CLOUDY    41  25  53 W9        30.09F
CAMBRIDGE*     SUNNY     41  25  52 W8        30.10F
EASTON*        MOSUNNY   43  23  45 NW6       30.13F

$$

MDZ017>025-232000-
SOUTHERN MARYLAND

CITY           SKY/WX    TMP DP  RH WIND       PRES   REMARKS
PATUXENT RIVER SUNNY     42  23  46 CALM      30.09F
ST INIGOES     SUNNY     42  26  53 VRB6      30.09F
LEONARDTOWN*   SUNNY     43  23  45 W6        30.11F

$$

MDZ003>005-232000-
NORTH CENTRAL MARYLAND

CITY           SKY/WX    TMP DP  RH WIND       PRES   REMARKS
FREDERICK*     SUNNY     45  19  36 CALM      30.11F
HAGERSTOWN APT SUNNY     41  21  44 CALM      30.06F
WESTMINSTER*   SUNNY     39  25  56 CALM      30.06F

$$

MDZ501>502-232000-
WESTERN MARYLAND

CITY           SKY/WX    TMP DP  RH WIND       PRES   REMARKS
OAKLAND*       SUNNY     34  18  51 NW7       29.94F
CUMBERLAND*    SUNNY     45  23  42 CALM      30.08F

$$

VAZ025>031-232000-
SHENANDOAH VALLEY

CITY           SKY/WX    TMP DP  RH WIND       PRES   REMARKS
WINCHESTER*    SUNNY     41  23  48 S5        30.06F
FRONT ROYAL*   SUNNY     43  23  45 MISG      30.06F
LURAY*         SUNNY     43  27  52 CALM      30.05F
NEW MARKET*    SUNNY     43  21  42 W3        30.05F
STAUNTON*      SUNNY     42  22  46 CALM      30.05F
WAYNESBORO*    SUNNY     44  23  44 S5        30.03F

$$

WVZ021-048>050-054>055-232000-
EASTERN WEST VIRGINIA PANHANDLE

CITY           SKY/WX    TMP DP  RH WIND       PRES   REMARKS
MARTINSBURG    SUNNY     43  18  36 N3        30.06F
PETERSBURG*    SUNNY     44  21  39 CALM      30.03F

$$

VAZ036>039-050-232000-
CENTRAL FOOTHILLS

CITY           SKY/WX    TMP DP  RH WIND       PRES   REMARKS
CHARLOTTESVILL SUNNY     45  23  42 SE6       30.06F
CULPEPER*      SUNNY     44  23  43 SW3       30.10F
ORANGE*        SUNNY     43  25  49 CALM      30.08F
GORDONSVILLE*  SUNNY     44  25  47 W3        30.08F
WARRENTON*     NOT AVBL

$$

VAZ055>057-232000-
NORTH AND CENTRAL PIEDMONT

CITY           SKY/WX    TMP DP  RH WIND       PRES   REMARKS
FREDERICKSBRG* SUNNY     45  25  45 SW6       30.09F
STAFFORD*      SUNNY     44  22  41 W6        30.13F

$$

NCZ024-NYZ072-PAZ021-071-VAZ022-071-232000-
OTHER REGIONAL OBSERVATIONS

CITY           SKY/WX    TMP DP  RH WIND       PRES   REMARKS
NEW YORK CITY  SUNNY     42  18  37 CALM      30.05F
PHILADELPHIA   MOSUNNY   41  18  39 NW8       30.07F
PITTSBURGH     PTSUNNY   38  22  52 VRB3      30.04F
ROANOKE        SUNNY     46  24  42 SE5       30.06F
RICHMOND       MOSUNNY   43  24  47 VRB5      30.11F
RALEIGH        PTSUNNY   47  25  42 VRB3      30.09F

$$

ANZ530>537-232000-
MARINE OBSERVATIONS

STATION/POSITION TIME  TEMP    WIND        PRES
                       AIR SEA DIR/SP/G
                 (UTC) (F)     (DEG/KT/KT) (MB)
THOMAS PT LIGHT  1900   40 51  130/  4/  5   N/A
BALT KEY BRIDGE  1848   42     300/  3/  5 1018.9F
COVE POINT       1848   39     120/  3/  5 1019.8F
LEWISETTA        1848   40 50   20/  5/  9 1019.4F
SOLOMONS ISLAND  1848   40 53  100/  3/  5 1018.8F
PINEY POINT      1848          340/  6/  7   N/A

$$





USA.gov is the U.S. government's official web portal to all federal, state and local government web resources and services.